Soldotna, AK

10:16 AM AKDT on July 26, 2017 (GMT -0800)
Soldotna

Weather History for PASX - September, 2013

Change the Weather History Date:

Monday, September 23, 2013

  Actual Average Record
Temperature  
Mean Temperature 38 °F -  
Max Temperature 48 °F 51 °F 64 °F (1951)
Min Temperature 28 °F 35 °F 16 °F (1992)
Degree Days  
Heating Degree Days 27    
Moisture  
Dew Point 21 °F    
Average Humidity 49    
Maximum Humidity 74    
Minimum Humidity 32    
Precipitation  
Precipitation 0.00 in - - ()
Sea Level Pressure  
Sea Level Pressure 29.54 in    
Wind  
Wind Speed 6 mph (NE)    
Max Wind Speed 12 mph    
Max Gust Speed 18 mph    
Visibility 10 miles    
Events      
Averages and records for this station are not official NWS values.
T = Trace of Precipitation, MM = Missing Value Source: NWS Daily Summary

Daily Weather History Graph

Daily Weather History Graph

Search for Another Location

Airport or City:

Trip Planner

Search our weather history database for the weather conditions in past years. The results will help you decide how hot, cold, wet, or windy it might be!

Date:

Astronomy

Sep. 23, 2013 Rise Set
Actual Time 7:51 AM AKDT 7:59 PM AKDT
Civil Twilight 7:09 AM AKDT 8:41 PM AKDT
Nautical Twilight 6:18 AM AKDT 9:31 PM AKDT
Astronomical Twilight 5:23 AM AKDT 10:26 PM AKDT
Moon 9:19 PM AKDT (9/23) 1:38 PM AKDT (9/23)
Length of Visible Light 13h 31m
Length of Day
12h 07m
Waning Gibbous, 80% of the Moon is Illuminated
Sep 23
Waning Gibbous
Sep 26
Last Quarter
Oct 4
New
Oct 11
First Quarter
Oct 18
Full

Hourly Weather History & Observations

Time (AKDT) Temp. Windchill Dew Point Humidity Pressure Visibility Wind Dir Wind Speed Gust Speed Precip Events Conditions
12:16 AM 41.0 °F 36.4 °F 21.2 °F 45% 29.31 in 10.0 mi NNE 6.9 mph - N/A   Clear
12:36 AM 41.0 °F 35.2 °F 19.4 °F 42% 29.32 in 10.0 mi NNE 9.2 mph - N/A   Clear
12:56 AM 41.0 °F 35.8 °F 19.4 °F 42% 29.33 in 10.0 mi NNE 8.1 mph - N/A   Clear
1:16 AM 41.0 °F 37.1 °F 19.4 °F 42% 29.33 in 10.0 mi NNE 5.8 mph - N/A   Clear
1:36 AM 41.0 °F 35.2 °F 19.4 °F 42% 29.34 in 10.0 mi NNE 9.2 mph - N/A   Clear
1:56 AM 41.0 °F 36.4 °F 19.4 °F 42% 29.35 in 10.0 mi NNE 6.9 mph - N/A   Clear
2:16 AM 39.2 °F 35.9 °F 19.4 °F 45% 29.36 in 10.0 mi NNE 4.6 mph - N/A   Clear
2:36 AM 39.2 °F 34.2 °F 19.4 °F 45% 29.36 in 10.0 mi NE 6.9 mph - N/A   Clear
2:56 AM 39.2 °F 35.0 °F 19.4 °F 45% 29.37 in 10.0 mi NNE 5.8 mph - N/A   Clear
3:16 AM 39.2 °F 35.0 °F 19.4 °F 45% 29.38 in 10.0 mi NNE 5.8 mph - N/A   Clear
3:36 AM 39.2 °F 34.2 °F 19.4 °F 45% 29.38 in 10.0 mi NE 6.9 mph - N/A   Clear
3:56 AM 41.0 °F 35.2 °F 19.4 °F 42% 29.39 in 10.0 mi NNE 9.2 mph - N/A   Scattered Clouds
4:16 AM 41.0 °F 35.8 °F 19.4 °F 42% 29.39 in 10.0 mi NNE 8.1 mph - N/A   Overcast
4:36 AM 41.0 °F 35.8 °F 19.4 °F 42% 29.40 in 10.0 mi NNE 8.1 mph - N/A   Overcast
4:56 AM 41.0 °F 35.8 °F 19.4 °F 42% 29.40 in 10.0 mi NNE 8.1 mph - N/A   Overcast
5:16 AM 41.0 °F 35.2 °F 19.4 °F 42% 29.41 in 10.0 mi NE 9.2 mph 18.4 mph N/A   Overcast
5:36 AM 39.2 °F 35.0 °F 19.4 °F 45% 29.41 in 10.0 mi NE 5.8 mph - N/A   Mostly Cloudy
5:56 AM 39.2 °F 34.2 °F 19.4 °F 45% 29.42 in 10.0 mi NE 6.9 mph - N/A   Partly Cloudy
6:16 AM 39.2 °F 35.9 °F 19.4 °F 45% 29.43 in 10.0 mi NE 4.6 mph - N/A   Clear
6:36 AM 37.4 °F 33.8 °F 19.4 °F 48% 29.44 in 10.0 mi East 4.6 mph - N/A   Partly Cloudy
6:56 AM 37.4 °F 33.8 °F 21.2 °F 52% 29.44 in 10.0 mi ENE 4.6 mph - N/A   Scattered Clouds
7:16 AM 37.4 °F 33.8 °F 21.2 °F 52% 29.45 in 10.0 mi East 4.6 mph - N/A   Scattered Clouds
7:36 AM 37.4 °F 33.8 °F 21.2 °F 52% 29.46 in 10.0 mi ENE 4.6 mph - N/A   Clear
7:56 AM 37.4 °F 32.8 °F 23.0 °F 56% 29.47 in 10.0 mi ENE 5.8 mph - N/A   Partly Cloudy
8:16 AM 37.4 °F 34.9 °F 23.0 °F 56% 29.47 in 10.0 mi East 3.5 mph - N/A   Clear
8:36 AM 37.4 °F 34.9 °F 24.8 °F 60% 29.48 in 10.0 mi East 3.5 mph - N/A   Mostly Cloudy
8:56 AM 35.6 °F 31.7 °F 26.6 °F 70% 29.49 in 10.0 mi East 4.6 mph - N/A   Overcast
9:16 AM 37.4 °F - 24.8 °F 60% 29.49 in 10.0 mi Calm Calm - N/A   Overcast
9:36 AM 37.4 °F 33.8 °F 26.6 °F 65% 29.50 in 10.0 mi East 4.6 mph - N/A   Mostly Cloudy
9:56 AM 37.4 °F - 26.6 °F 65% 29.51 in 10.0 mi Calm Calm - N/A   Mostly Cloudy
10:16 AM 37.4 °F 34.9 °F 26.6 °F 65% 29.51 in 10.0 mi ESE 3.5 mph - N/A   Overcast
10:36 AM 37.4 °F 32.8 °F 26.6 °F 65% 29.52 in 10.0 mi ESE 5.8 mph - N/A   Overcast
10:56 AM 39.2 °F 35.0 °F 24.8 °F 56% 29.53 in 10.0 mi SE 5.8 mph - N/A   Mostly Cloudy
11:16 AM 39.2 °F 35.0 °F 26.6 °F 61% 29.53 in 10.0 mi SE 5.8 mph - N/A   Scattered Clouds
11:36 AM 39.2 °F 34.2 °F 26.6 °F 61% 29.54 in 10.0 mi SE 6.9 mph - N/A   Mostly Cloudy
11:56 AM 39.2 °F - 26.6 °F 61% 29.54 in 10.0 mi Calm Calm - N/A   Mostly Cloudy
12:16 PM 42.8 °F 41.1 °F 24.8 °F 49% 29.55 in 10.0 mi East 3.5 mph - N/A   Clear
12:36 PM 42.8 °F 39.3 °F 26.6 °F 53% 29.55 in 10.0 mi East 5.8 mph - N/A   Clear
12:56 PM 44.6 °F 39.7 °F 24.8 °F 46% 29.56 in 10.0 mi ENE 9.2 mph 17.3 mph N/A   Clear
1:16 PM 44.6 °F 39.7 °F 23.0 °F 43% 29.56 in 10.0 mi NE 9.2 mph 17.3 mph N/A   Clear
1:36 PM 44.6 °F 39.2 °F 21.2 °F 39% 29.57 in 10.0 mi NE 10.4 mph - N/A   Partly Cloudy
1:56 PM 44.6 °F 40.2 °F 21.2 °F 39% 29.58 in 10.0 mi North 8.1 mph - N/A   Partly Cloudy
2:16 PM 46.4 °F 43.5 °F 21.2 °F 37% 29.58 in 10.0 mi NE 5.8 mph - N/A   Clear
2:36 PM 44.6 °F 39.7 °F 19.4 °F 37% 29.59 in 10.0 mi NNE 9.2 mph - N/A   Clear
2:56 PM 46.4 °F 42.4 °F 19.4 °F 34% 29.59 in 10.0 mi NNE 8.1 mph - N/A   Clear
3:16 PM 46.4 °F 41.5 °F 19.4 °F 34% 29.60 in 10.0 mi NNE 10.4 mph - N/A   Clear
3:36 PM 46.4 °F 41.1 °F 19.4 °F 34% 29.61 in 10.0 mi North 11.5 mph 18.4 mph N/A   Clear
3:56 PM 46.4 °F 44.3 °F 19.4 °F 34% 29.61 in 10.0 mi NE 4.6 mph - N/A   Clear
4:16 PM 46.4 °F 42.9 °F 19.4 °F 34% 29.62 in 10.0 mi NNE 6.9 mph - N/A   Clear
4:36 PM 48.2 °F - 19.4 °F 32% 29.62 in 10.0 mi North 8.1 mph 16.1 mph N/A   Clear
4:56 PM 48.2 °F - 19.4 °F 32% 29.63 in 10.0 mi North 5.8 mph - N/A   Clear
5:16 PM 48.2 °F - 19.4 °F 32% 29.63 in 10.0 mi NE 6.9 mph - N/A   Clear
5:36 PM 48.2 °F - 19.4 °F 32% 29.63 in 10.0 mi NNE 5.8 mph - N/A   Clear
5:56 PM 48.2 °F - 19.4 °F 32% 29.64 in 10.0 mi North 5.8 mph - N/A   Clear
6:16 PM 48.2 °F - 19.4 °F 32% 29.64 in 10.0 mi NE 3.5 mph - N/A   Clear
6:36 PM 48.2 °F - 19.4 °F 32% 29.65 in 10.0 mi NE 5.8 mph - N/A   Clear
6:56 PM 46.4 °F 45.2 °F 19.4 °F 34% 29.65 in 10.0 mi NNE 3.5 mph - N/A   Clear
7:16 PM 46.4 °F 45.2 °F 19.4 °F 34% 29.66 in 10.0 mi NE 3.5 mph - N/A   Clear
7:36 PM 44.6 °F - 21.2 °F 39% 29.66 in 10.0 mi Calm Calm - N/A   Clear
7:56 PM 39.2 °F - 23.0 °F 52% 29.67 in 10.0 mi Calm Calm - N/A   Clear
8:16 PM 37.4 °F - 24.8 °F 60% 29.68 in 10.0 mi Calm Calm - N/A   Clear
8:36 PM 35.6 °F - 21.2 °F 56% 29.68 in 10.0 mi Calm Calm - N/A   Clear
8:56 PM 33.8 °F - 21.2 °F 60% 29.69 in 10.0 mi Calm Calm - N/A   Clear
9:16 PM 33.8 °F - 21.2 °F 60% 29.70 in 10.0 mi Calm Calm - N/A   Clear
9:36 PM 30.2 °F - 21.2 °F 69% 29.70 in 10.0 mi Calm Calm - N/A   Clear
9:56 PM 30.2 °F - 19.4 °F 64% 29.71 in 10.0 mi Calm Calm - N/A   Clear
10:16 PM 28.4 °F - 21.2 °F 74% 29.73 in 10.0 mi Calm Calm - N/A   Clear
10:36 PM 28.4 °F 24.6 °F 19.4 °F 69% 29.73 in 10.0 mi East 3.5 mph - N/A   Clear
10:56 PM 28.4 °F - 19.4 °F 69% 29.74 in 10.0 mi Calm Calm - N/A   Clear
11:16 PM 28.4 °F 24.6 °F 21.2 °F 74% 29.75 in 10.0 mi East 3.5 mph - N/A   Clear
11:36 PM 28.4 °F 24.6 °F 19.4 °F 69% 29.75 in 10.0 mi ENE 3.5 mph - N/A   Clear
11:56 PM 28.4 °F 24.6 °F 21.2 °F 74% 29.76 in 10.0 mi ENE 3.5 mph - N/A   Clear